Location: Newark
(48.6767°N, 1.3256°E)
Time: 03:48:40
(UTC+00:00)

ISS - Pass Details

Date: 29 November 2019
Orbit: 411 x 421 km, 51.6° (Epoch: 08 December)

Event Time Altitude Azimuth Distance (km) Brightness Sun altitude
Rises 18:11:12 0° 271° (W) 2,357 1.5 -20.5°
Reaches altitude 10° 18:13:20 10° 277° (W) 1,497 0.1 -20.9°
Enters shadow 18:16:14 47° 328° (NNW) 565 -3.1 -21.4°
